GPS BIIF-1 (PRN 25)

Last updated on July 6, 2021, 3:39 p.m. UTC

1 36585U 10022A   21186.60395115 -.00000044  00000-0  00000+0 0  9998
2 36585  55.0311 281.5085 0096552  54.9698 303.4809  2.00571584 81335
UTC
Height (km)
Latitude
Longitude
Inclination
Orbital Period
UTC large
Height (km)
Speed (km/s)
/
Latitude / Longitude
Inclination (degrees)
Orbital Period (minutes)
Azimuth
Elevation
Range (km)
Doppler Factor
iOS Compass Heading
iOS Angle